THOR ABLESTAR DEB, 123

Orbit data source: Space-Track

THOR ABLESTAR DEB, 123 is space debris in LEO originally from a launch on Thu, 29 Jun 1961 UTC launched from the Air Force Eastern Test Range (AFETR). Debris objects in space refer to the collection of defunct objects orbiting the Earth. Examples of debris include non-operational satellites, rocket bodies, and fragments generated from explosions, collisions, or faulty payload assembly.

Loading next visibility...
Identifier
123, 1961-015H
Orbit
LEO
Country
Flag of USUS
Related business
Manufacturer
Unknown
Mission
Spacecraft
Bus & Motor
Unknown
Mass
Unknown
Launch date (UTC)
1961-06-29 (64 years ago)
Launch vehicle
Unknown
Launch site
Air Force Eastern Test Range (AFETR)
Object type
Payload
Rocket body
Debris
Shape & HBR
Unknown shape, 0.3 m
Radar Cross Section
Medium (>0.1 m² and <1 m²)

Expand to show TLE details & history
Last TLE update: 19 hours ago

TLE from 19 hours ago
0 THOR ABLESTAR DEB
1 00123U 61015H   25294.44716082  .00001100  00000-0  34733-3 0  9998
2 00123  66.6876 344.6316 0101356  84.7597 276.5063 14.41218375345120
Epoch: 2025-10-21T10:43Z
TLE epoch observation values (Epoch: 2025-10-21T10:43:54.694Z)
Latitude
-0.00003°
Longitude
153.5187°
Altitude
749.125 km
Speed
7.484 km/s
True Right ascension
22h 58m 31s
True Declination
0° 00' 00"
Sunlit
Object was in full shadow at epoch
Visualization orbit readout
Latitude
Unknown
Longitude
Unknown
Altitude
Unknown
Speed
Unknown
Apparent Right ascension
Unknown
Apparent Declination
Unknown
Sunlit
N/A
Visualization observer readout
Local Sidereal Time
00:47:40
Azimuth
Unknown
Elevation
Unknown
Doppler factor
Unknown
Orbital elements
Apogee altitude
825.12 km
Perigee altitude
680.567 km
Semi-major axis
7,130.98 km
Eccentricity
0.01014
Inclination
66.6876°
RAAN
344.6316°
Arg. of periapsis
84.7597°
True anomaly
275.35075°
Mean anomaly
276.5063°
Eccentric anomaly
275.92868°
Mean motion
3.60429 °/min
Orbital period
99.88 mins
BSTAR
0.00034733

Documentation

Showing up to 5 results
|